Location: Unspecified
(0.0000°N, 0.0000°E)
Time: 15:54:46
(UTC+00:00)

CZ-3C DEB - Pass Details

Date: 22 February 2026
Orbit: 521 x 35552 km, 20.3° (Epoch: 6 July)

Event Time Altitude Azimuth Distance (km) Brightness Sun altitude
Rises 19:19:09 0° 273° (W) 3,767 ? -16.2°
Reaches altitude 10° 19:20:49 10° 268° (W) 3,212 ? -16.6°
Maximum altitude 19:28:32 58° 188° (S) 2,925 ? -18.5°
Drops below altitude 10° 01:00:57 10° 91° (E) 22,878 ? -74.6°
Sets 01:33:50 0° 85° (E) 18,956 ? -67.7°
